User: anonymous
Location: Unspecified
(0.0000°N, 0.0000°E)
Time: 05:00:42
(UTC+00:00)
Language:

Tiros 10 - Orbit

View from above orbital plane
View from above orbital plane
View from above satellite
View from above satellite

Ground track
Ground track

The orbit data is extracted from the following two-line orbital elements,

1 01430U 65051A   14209.65355896  .00000068  00000-0  33975-4 0  6473
2 01430 098.0802 045.1804 0056425 208.2638 151.5487 14.39904262571329
Epoch (UTC): 28 July 2014 15:41:07
Eccentricity: 0.0056425
inclination: 98.0802°
perigee height: 718 km
apogee height: 799 km
right ascension of ascending node: 45.1804°
argument of perigee: 208.2638°
revolutions per day: 14.39904262
mean anomaly at epoch: 151.5487°
orbit number at epoch: 57132

The dashed part of the orbit path shows where the satellite is in the earth's shadow,  

DLR